| time (UTC) | temp F | wind direction | speed knots | gust knots | rain 1hr in | rain 24hr in | rain mn in | humidity % | barometer mb |
| 20260502151532 | 64 | 75 | 2.6 | 5.2 | 0.00 | 0.00 | 0.00 | 21 | 1018.2 |
| 20260502123031 | 47 | 240 | 2.6 | 3.5 | 0.00 | 0.00 | 0.00 | 35 | 1018.2 |
| 20260502121532 | 44 | 38 | 0.0 | 1.7 | 0.00 | 0.00 | 0.00 | 37 | 1018.2 |
| 20260502114538 | 44 | 270 | 0.0 | 1.7 | 0.00 | 0.00 | 0.00 | 39 | 1018.2 |
| 20260502113031 | 44 | 314 | 0.0 | 1.7 | 0.00 | 0.00 | 0.00 | 39 | 1018.2 |
| 20260502111533 | 46 | 0 | 0.0 | 3.5 | 0.00 | 0.00 | 0.00 | 36 | 1018.3 |
| 20260502110029 | 43 | 278 | 0.9 | 2.6 | 0.00 | 0.00 | 0.00 | 39 | 1018.5 |
| 20260502104531 | 41 | 0 | 0.0 | 0.9 | 0.00 | 0.00 | 0.00 | 41 | 1018.5 |
| 20260502103030 | 42 | 274 | 0.0 | 2.6 | 0.00 | 0.00 | 0.00 | 39 | 1018.6 |
| 20260502101529 | 43 | 270 | 0.0 | 3.5 | 0.00 | 0.00 | 0.00 | 39 | 1018.7 |
| 20260502091529 | 45 | 283 | 1.7 | 6.1 | 0.00 | 0.00 | 0.00 | 39 | 1018.9 |
| 20260502071532 | 43 | 332 | 0.9 | 3.5 | 0.00 | 0.00 | 0.00 | 48 | 1020.1 |
| 20260502070034 | 44 | 0 | 0.0 | 1.7 | 0.00 | 0.00 | 0.00 | 46 | 1019.9 |
| 20260502064541 | 46 | 265 | 0.0 | 3.5 | 0.00 | 0.00 | 0.00 | 44 | 1019.9 |
| 20260502063031 | 44 | 0 | 0.0 | 1.7 | 0.00 | 0.00 | 0.00 | 47 | 1020.1 |
| 20260502061531 | 46 | 214 | 0.9 | 2.6 | 0.00 | 0.00 | 0.00 | 44 | 1020.1 |
| 20260502060041 | 48 | 0 | 0.0 | 5.2 | 0.00 | 0.00 | 0.00 | 45 | 1020.1 |
| 20260502054529 | 46 | 0 | 0.0 | 4.3 | 0.00 | 0.00 | 0.00 | 47 | 1020.1 |
| 20260502053030 | 45 | 0 | 0.0 | 2.6 | 0.00 | 0.00 | 0.00 | 48 | 1020.2 |
| 20260502051534 | 46 | 0 | 0.0 | 2.6 | 0.00 | 0.00 | 0.00 | 48 | 1020.2 |
| 20260502050033 | 44 | 290 | 0.0 | 2.6 | 0.00 | 0.00 | 0.00 | 54 | 1020.2 |
| 20260502044528 | 45 | 0 | 0.0 | 1.7 | 0.00 | 0.00 | 0.00 | 49 | 1020.3 |
| 20260502043029 | 46 | 243 | 0.0 | 1.7 | 0.00 | 0.00 | 0.00 | 50 | 1020.4 |
| 20260502041534 | 46 | 345 | 0.0 | 1.7 | 0.00 | 0.00 | 0.00 | 44 | 1020.5 |
| 20260502040032 | 47 | 0 | 0.0 | 0.0 | 0.00 | 0.00 | 0.00 | 44 | 1020.6 |
| 20260502034533 | 46 | 248 | 2.6 | 3.5 | 0.00 | 0.00 | 0.00 | 45 | 1020.4 |
| 20260502033031 | 46 | 309 | 0.9 | 3.5 | 0.00 | 0.00 | 0.00 | 46 | 1020.4 |
| 20260502031530 | 48 | 288 | 0.9 | 4.3 | 0.00 | 0.00 | 0.00 | 44 | 1020.3 |
| 20260502030032 | 48 | 250 | 0.9 | 3.5 | 0.00 | 0.00 | 0.00 | 45 | 1020.2 |
| 20260502024533 | 49 | 274 | 1.7 | 4.3 | 0.00 | 0.00 | 0.00 | 43 | 1020.0 |
| 20260502023029 | 52 | 282 | 1.7 | 3.5 | 0.00 | 0.00 | 0.00 | 38 | 1019.8 |
| 20260502021528 | 54 | 317 | 3.5 | 7.8 | 0.00 | 0.00 | 0.00 | 34 | 1019.8 |
| 20260502020034 | 55 | 319 | 3.5 | 7.0 | 0.00 | 0.00 | 0.00 | 35 | 1019.7 |
| 20260502014532 | 56 | 353 | 7.0 | 12.2 | 0.00 | 0.00 | 0.00 | 30 | 1019.5 |
| 20260502013031 | 57 | 342 | 6.1 | 12.2 | 0.00 | 0.00 | 0.00 | 30 | 1019.4 |
| 20260502011530 | 58 | 345 | 9.6 | 14.8 | 0.00 | 0.00 | 0.00 | 29 | 1019.3 |
| 20260502010031 | 60 | 348 | 13.0 | 16.5 | 0.00 | 0.00 | 0.00 | 29 | 1019.2 |
| 20260502004539 | 60 | 322 | 13.0 | 18.2 | 0.00 | 0.00 | 0.00 | 27 | 1019.2 |
| 20260502003029 | 60 | 311 | 14.8 | 20.9 | 0.00 | 0.00 | 0.00 | 28 | 1019.1 |
| 20260502001532 | 60 | 309 | 15.6 | 22.6 | 0.00 | 0.00 | 0.00 | 25 | 1018.9 |
| 20260502000029 | 61 | 332 | 16.5 | 25.2 | 0.00 | 0.00 | 0.00 | 27 | 1018.9 |
| 20260501234532 | 61 | 352 | 18.2 | 24.3 | 0.00 | 0.00 | 0.00 | 26 | 1018.8 |
| 20260501233031 | 61 | 351 | 18.2 | 23.5 | 0.00 | 0.00 | 0.00 | 26 | 1018.9 |
| 20260501231532 | 61 | 352 | 18.2 | 26.9 | 0.00 | 0.00 | 0.00 | 26 | 1018.8 |
| 20260501230031 | 61 | 275 | 20.0 | 26.9 | 0.00 | 0.00 | 0.00 | 26 | 1018.9 |
| 20260501224532 | 61 | 34 | 20.9 | 26.9 | 0.00 | 0.00 | 0.00 | 27 | 1018.9 |
| 20260501223029 | 61 | 11 | 19.1 | 30.4 | 0.00 | 0.00 | 0.00 | 26 | 1018.7 |
| 20260501221530 | 61 | 349 | 19.1 | 28.7 | 0.00 | 0.00 | 0.00 | 27 | 1018.9 |
| 20260501220037 | 60 | 349 | 18.2 | 28.7 | 0.00 | 0.00 | 0.00 | 25 | 1018.9 |
| 20260501214530 | 60 | 305 | 16.5 | 27.8 | 0.00 | 0.00 | 0.00 | 26 | 1019.0 |
| 20260501213036 | 60 | 337 | 21.7 | 32.2 | 0.00 | 0.00 | 0.00 | 24 | 1018.9 |
| 20260501211533 | 60 | 340 | 21.7 | 34.8 | 0.00 | 0.00 | 0.00 | 27 | 1019.0 |
| 20260501210033 | 60 | 345 | 22.6 | 32.2 | 0.00 | 0.00 | 0.00 | 27 | 1019.1 |
| 20260501204544 | 61 | 340 | 18.2 | 28.7 | 0.00 | 0.00 | 0.00 | 27 | 1019.1 |
| 20260501203031 | 61 | 195 | 11.3 | 25.2 | 0.00 | 0.00 | 0.00 | 27 | 1019.3 |
| 20260501201531 | 60 | 356 | 20.9 | 29.5 | 0.00 | 0.00 | 0.00 | 27 | 1019.1 |
| 20260501200034 | 60 | 282 | 14.8 | 29.5 | 0.00 | 0.00 | 0.00 | 26 | 1019.4 |
| 20260501194532 | 59 | 344 | 25.2 | 34.8 | 0.00 | 0.00 | 0.00 | 27 | 1019.0 |
| 20260501193029 | 59 | 347 | 20.0 | 31.3 | 0.00 | 0.00 | 0.00 | 28 | 1019.5 |
| 20260501191539 | 59 | 337 | 15.6 | 33.9 | 0.00 | 0.00 | 0.00 | 27 | 1019.5 |
| 20260501190029 | 60 | 238 | 20.0 | 34.8 | 0.00 | 0.00 | 0.00 | 29 | 1019.4 |
| 20260501184542 | 58 | 330 | 22.6 | 29.5 | 0.00 | 0.00 | 0.00 | 26 | 1019.4 |
| 20260501183036 | 59 | 6 | 13.0 | 28.7 | 0.00 | 0.00 | 0.00 | 26 | 1019.4 |
| 20260501181530 | 58 | 342 | 24.3 | 36.5 | 0.00 | 0.00 | 0.00 | 27 | 1019.3 |
| 20260501180030 | 58 | 347 | 22.6 | 33.0 | 0.00 | 0.00 | 0.00 | 29 | 1019.3 |
| 20260501174532 | 58 | 348 | 23.5 | 32.2 | 0.00 | 0.00 | 0.00 | 29 | 1019.3 |
| 20260501173029 | 58 | 330 | 20.9 | 29.5 | 0.00 | 0.00 | 0.00 | 27 | 1019.3 |
| 20260501171546 | 58 | 322 | 16.5 | 27.8 | 0.00 | 0.00 | 0.00 | 30 | 1019.3 |
| 20260501170038 | 58 | 356 | 11.3 | 30.4 | 0.00 | 0.00 | 0.00 | 28 | 1019.5 |
| 20260501164531 | 57 | 330 | 10.4 | 29.5 | 0.00 | 0.00 | 0.00 | 29 | 1019.5 |
| 20260501163031 | 57 | 343 | 13.0 | 30.4 | 0.00 | 0.00 | 0.00 | 30 | 1019.2 |
| 20260501161532 | 56 | 326 | 20.9 | 33.0 | 0.00 | 0.00 | 0.00 | 29 | 1019.4 |
| 20260501160033 | 56 | 287 | 15.6 | 25.2 | 0.00 | 0.00 | 0.00 | 32 | 1019.6 |
| 20260501154540 | 55 | 352 | 15.6 | 21.7 | 0.00 | 0.00 | 0.00 | 34 | 1019.6 |
| 20260501153031 | 55 | 4 | 16.5 | 20.9 | 0.00 | 0.00 | 0.00 | 31 | 1019.6 |